Year,Month,Day,Hour,Minute,Value (Times are PST for temperature in C)
2011,05,20,00,00,9.20
2011,05,20,00,01,9.20
2011,05,20,00,02,9.20
2011,05,20,00,03,9.10
2011,05,20,00,04,9.10
2011,05,20,00,05,9.10
2011,05,20,00,06,9.00
2011,05,20,00,07,9.00
2011,05,20,00,08,9.00
2011,05,20,00,09,8.90
2011,05,20,00,10,8.90
2011,05,20,00,11,8.90
2011,05,20,00,12,8.90
2011,05,20,00,13,8.80
2011,05,20,00,14,8.80
2011,05,20,00,15,8.80
2011,05,20,00,16,8.80
2011,05,20,00,17,8.80
2011,05,20,00,18,8.80
2011,05,20,00,19,8.70
2011,05,20,00,20,8.70
2011,05,20,00,21,8.70
2011,05,20,00,22,8.70
2011,05,20,00,23,8.70
2011,05,20,00,24,8.70
2011,05,20,00,25,8.70
2011,05,20,00,26,8.70
2011,05,20,00,27,8.60
2011,05,20,00,28,8.60
2011,05,20,00,29,8.60
2011,05,20,00,30,8.60
2011,05,20,00,31,8.60
2011,05,20,00,32,8.60
2011,05,20,00,33,8.60
2011,05,20,00,34,8.60
2011,05,20,00,35,8.60
2011,05,20,00,36,8.60
2011,05,20,00,37,8.60
2011,05,20,00,38,8.50
2011,05,20,00,39,8.50
2011,05,20,00,40,8.50
2011,05,20,00,41,8.40
2011,05,20,00,42,8.40
2011,05,20,00,43,8.30
2011,05,20,00,44,8.30
2011,05,20,00,45,8.30
2011,05,20,00,46,8.30
2011,05,20,00,47,8.30
2011,05,20,00,48,8.30
2011,05,20,00,49,8.30
2011,05,20,00,50,8.20
2011,05,20,00,51,8.20
2011,05,20,00,52,8.20
2011,05,20,00,53,8.20
2011,05,20,00,54,8.20
2011,05,20,00,55,8.10
2011,05,20,00,56,8.10
2011,05,20,00,57,8.10
2011,05,20,00,58,8.10
2011,05,20,00,59,8.10
2011,05,20,01,00,8.00
2011,05,20,01,01,8.00
2011,05,20,01,02,8.00
2011,05,20,01,03,7.90
2011,05,20,01,04,7.90
2011,05,20,01,05,7.90
2011,05,20,01,06,7.80
2011,05,20,01,07,7.80
2011,05,20,01,08,7.80
2011,05,20,01,09,7.80
2011,05,20,01,10,7.80
2011,05,20,01,11,7.80
2011,05,20,01,12,7.80
2011,05,20,01,13,7.70
2011,05,20,01,14,7.70
2011,05,20,01,15,7.70
2011,05,20,01,16,7.70
2011,05,20,01,17,7.70
2011,05,20,01,18,7.70
2011,05,20,01,19,7.70
2011,05,20,01,20,7.70
2011,05,20,01,21,7.70
2011,05,20,01,22,7.60
2011,05,20,01,23,7.60
2011,05,20,01,24,7.60
2011,05,20,01,25,7.60
2011,05,20,01,26,7.60
2011,05,20,01,27,7.60
2011,05,20,01,28,7.60
2011,05,20,01,29,7.60
2011,05,20,01,30,7.50
2011,05,20,01,31,7.50
2011,05,20,01,32,7.40
2011,05,20,01,33,7.40
2011,05,20,01,34,7.40
2011,05,20,01,35,7.30
2011,05,20,01,36,7.30
2011,05,20,01,37,7.30
2011,05,20,01,38,7.30
2011,05,20,01,39,7.30
2011,05,20,01,40,7.30
2011,05,20,01,41,7.30
2011,05,20,01,42,7.20
2011,05,20,01,43,7.20
2011,05,20,01,44,7.20
2011,05,20,01,45,7.20
2011,05,20,01,46,7.20
2011,05,20,01,47,7.20
2011,05,20,01,48,7.10
2011,05,20,01,49,7.10
2011,05,20,01,50,7.10
2011,05,20,01,51,7.10
2011,05,20,01,52,7.00
2011,05,20,01,53,7.00
2011,05,20,01,54,7.00
2011,05,20,01,55,7.00
2011,05,20,01,56,7.00
2011,05,20,01,57,7.00
2011,05,20,01,58,7.00
2011,05,20,01,59,7.00
2011,05,20,02,00,7.00
2011,05,20,02,01,7.00
2011,05,20,02,02,7.00
2011,05,20,02,03,7.00
2011,05,20,02,04,7.00
2011,05,20,02,05,7.00
2011,05,20,02,06,7.00
2011,05,20,02,07,7.00
2011,05,20,02,08,7.00
2011,05,20,02,09,7.00
2011,05,20,02,10,6.90
2011,05,20,02,11,6.90
2011,05,20,02,12,6.90
2011,05,20,02,13,6.90
2011,05,20,02,14,6.90
2011,05,20,02,15,6.90
2011,05,20,02,16,6.90
2011,05,20,02,17,6.90
2011,05,20,02,18,6.90
2011,05,20,02,19,6.90
2011,05,20,02,20,6.90
2011,05,20,02,21,6.90
2011,05,20,02,22,6.90
2011,05,20,02,23,6.80
2011,05,20,02,24,6.80
2011,05,20,02,25,6.80
2011,05,20,02,26,6.80
2011,05,20,02,27,6.80
2011,05,20,02,28,6.70
2011,05,20,02,29,6.70
2011,05,20,02,30,6.70
2011,05,20,02,31,6.70
2011,05,20,02,32,6.70
2011,05,20,02,33,6.60
2011,05,20,02,34,6.60
2011,05,20,02,35,6.60
2011,05,20,02,36,6.60
2011,05,20,02,37,6.60
2011,05,20,02,38,6.60
2011,05,20,02,39,6.60
2011,05,20,02,40,6.50
2011,05,20,02,41,6.50
2011,05,20,02,42,6.50
2011,05,20,02,43,6.50
2011,05,20,02,44,6.40
2011,05,20,02,45,6.40
2011,05,20,02,46,6.40
2011,05,20,02,47,6.40
2011,05,20,02,48,6.40
2011,05,20,02,49,6.40
2011,05,20,02,50,6.40
2011,05,20,02,51,6.40
2011,05,20,02,52,6.40
2011,05,20,02,53,6.40
2011,05,20,02,54,6.40
2011,05,20,02,55,6.40
2011,05,20,02,56,6.40
2011,05,20,02,57,6.40
2011,05,20,02,58,6.40
2011,05,20,02,59,6.40
2011,05,20,03,00,6.40
2011,05,20,03,01,6.40
2011,05,20,03,02,6.40
2011,05,20,03,03,6.40
2011,05,20,03,04,6.40
2011,05,20,03,05,6.40
2011,05,20,03,06,6.50
2011,05,20,03,07,6.50
2011,05,20,03,08,6.50
2011,05,20,03,09,6.50
2011,05,20,03,10,6.40
2011,05,20,03,11,6.40
2011,05,20,03,12,6.40
2011,05,20,03,13,6.40
2011,05,20,03,14,6.40
2011,05,20,03,15,6.40
2011,05,20,03,16,6.40
2011,05,20,03,17,6.40
2011,05,20,03,18,6.40
2011,05,20,03,19,6.40
2011,05,20,03,20,6.30
2011,05,20,03,21,6.30
2011,05,20,03,22,6.30
2011,05,20,03,23,6.30
2011,05,20,03,24,6.30
2011,05,20,03,25,6.30
2011,05,20,03,26,6.30
2011,05,20,03,27,6.20
2011,05,20,03,28,6.20
2011,05,20,03,29,6.20
2011,05,20,03,30,6.20
2011,05,20,03,31,6.20
2011,05,20,03,32,6.10
2011,05,20,03,33,6.10
2011,05,20,03,34,6.10
2011,05,20,03,35,6.10
2011,05,20,03,36,6.10
2011,05,20,03,37,6.10
2011,05,20,03,38,6.10
2011,05,20,03,39,6.10
2011,05,20,03,40,6.10
2011,05,20,03,41,6.10
2011,05,20,03,42,6.10
2011,05,20,03,43,6.10
2011,05,20,03,44,6.10
2011,05,20,03,45,6.10
2011,05,20,03,46,6.10
2011,05,20,03,47,6.10
2011,05,20,03,48,6.10
2011,05,20,03,49,6.10
2011,05,20,03,50,6.10
2011,05,20,03,51,6.10
2011,05,20,03,52,6.10
2011,05,20,03,53,6.10
2011,05,20,03,54,6.10
2011,05,20,03,55,6.10
2011,05,20,03,56,6.00
2011,05,20,03,57,6.00
2011,05,20,03,58,6.10
2011,05,20,03,59,6.10
2011,05,20,04,00,6.10
2011,05,20,04,01,6.10
2011,05,20,04,02,6.10
2011,05,20,04,03,6.10
2011,05,20,04,04,6.10
2011,05,20,04,05,6.10
2011,05,20,04,06,6.10
2011,05,20,04,07,6.10
2011,05,20,04,08,6.00
2011,05,20,04,09,6.00
2011,05,20,04,10,6.00
2011,05,20,04,11,5.90
2011,05,20,04,12,5.90
2011,05,20,04,13,5.90
2011,05,20,04,14,5.90
2011,05,20,04,15,5.90
2011,05,20,04,16,5.90
2011,05,20,04,17,5.90
2011,05,20,04,18,5.90
2011,05,20,04,19,5.90
2011,05,20,04,20,5.80
2011,05,20,04,21,5.90
2011,05,20,04,22,5.90
2011,05,20,04,23,5.90
2011,05,20,04,24,5.90
2011,05,20,04,25,5.90
2011,05,20,04,26,5.80
2011,05,20,04,27,5.80
2011,05,20,04,28,5.80
2011,05,20,04,29,5.80
2011,05,20,04,30,5.80
2011,05,20,04,31,5.80
2011,05,20,04,32,5.80
2011,05,20,04,33,5.80
2011,05,20,04,34,5.80
2011,05,20,04,35,5.80
2011,05,20,04,36,5.80
2011,05,20,04,37,5.70
2011,05,20,04,38,5.70
2011,05,20,04,39,5.70
2011,05,20,04,40,5.70
2011,05,20,04,41,5.70
2011,05,20,04,42,5.80
2011,05,20,04,43,5.80
2011,05,20,04,44,5.80
2011,05,20,04,45,5.80
2011,05,20,04,46,5.80
2011,05,20,04,47,5.80
2011,05,20,04,48,5.80
2011,05,20,04,49,5.70
2011,05,20,04,50,5.70
2011,05,20,04,51,5.70
2011,05,20,04,52,5.70
2011,05,20,04,53,5.70
2011,05,20,04,54,5.70
2011,05,20,04,55,5.70
2011,05,20,04,56,5.70
2011,05,20,04,57,5.70
2011,05,20,04,58,5.70
2011,05,20,04,59,5.70
2011,05,20,05,00,5.60
2011,05,20,05,01,5.60
2011,05,20,05,02,5.60
2011,05,20,05,03,5.60
2011,05,20,05,04,5.60
2011,05,20,05,05,5.60
2011,05,20,05,06,5.60
2011,05,20,05,07,5.60
2011,05,20,05,08,5.60
2011,05,20,05,09,5.60
2011,05,20,05,10,5.60
2011,05,20,05,11,5.50
2011,05,20,05,12,5.50
2011,05,20,05,13,5.50
2011,05,20,05,14,5.50
2011,05,20,05,15,5.40
2011,05,20,05,16,5.40
2011,05,20,05,17,5.40
2011,05,20,05,18,5.40
2011,05,20,05,19,5.40
2011,05,20,05,20,5.40
2011,05,20,05,21,5.30
2011,05,20,05,22,5.30
2011,05,20,05,23,5.30
2011,05,20,05,24,5.30
2011,05,20,05,25,5.30
2011,05,20,05,26,5.30
2011,05,20,05,27,5.30
2011,05,20,05,28,5.30
2011,05,20,05,29,5.30
2011,05,20,05,30,5.30
2011,05,20,05,31,5.20
2011,05,20,05,32,5.20
2011,05,20,05,33,5.20
2011,05,20,05,34,5.20
2011,05,20,05,35,5.20
2011,05,20,05,36,5.20
2011,05,20,05,37,5.20
2011,05,20,05,38,5.20
2011,05,20,05,39,5.10
2011,05,20,05,40,5.10
2011,05,20,05,41,5.10
2011,05,20,05,42,5.10
2011,05,20,05,43,5.10
2011,05,20,05,44,5.10
2011,05,20,05,45,5.10
2011,05,20,05,46,5.10
2011,05,20,05,47,5.10
2011,05,20,05,48,5.10
2011,05,20,05,49,5.10
2011,05,20,05,50,5.10
2011,05,20,05,51,5.10
2011,05,20,05,52,5.10
2011,05,20,05,53,5.10
2011,05,20,05,54,5.10
2011,05,20,05,55,5.10
2011,05,20,05,56,5.10
2011,05,20,05,57,5.10
2011,05,20,05,58,5.10
2011,05,20,05,59,5.10
2011,05,20,06,00,5.10
2011,05,20,06,01,5.10
2011,05,20,06,02,5.10
2011,05,20,06,03,5.10
2011,05,20,06,04,5.10
2011,05,20,06,05,5.20
2011,05,20,06,06,5.20
2011,05,20,06,07,5.20
2011,05,20,06,08,5.20
2011,05,20,06,09,5.20
2011,05,20,06,10,5.20
2011,05,20,06,11,5.20
2011,05,20,06,12,5.30
2011,05,20,06,13,5.30
2011,05,20,06,14,5.30
2011,05,20,06,15,5.30
2011,05,20,06,16,5.40
2011,05,20,06,17,5.40
2011,05,20,06,18,5.50
2011,05,20,06,19,5.50
2011,05,20,06,20,5.60
2011,05,20,06,21,5.60
2011,05,20,06,22,5.60
2011,05,20,06,23,5.60
2011,05,20,06,24,5.70
2011,05,20,06,25,5.70
2011,05,20,06,26,5.70
2011,05,20,06,27,5.70
2011,05,20,06,28,5.80
2011,05,20,06,29,5.80
2011,05,20,06,30,5.90
2011,05,20,06,31,5.90
2011,05,20,06,32,6.00
2011,05,20,06,33,6.00
2011,05,20,06,34,6.10
2011,05,20,06,35,6.20
2011,05,20,06,36,6.20
2011,05,20,06,37,6.30
2011,05,20,06,38,6.30
2011,05,20,06,39,6.30
2011,05,20,06,40,6.40
2011,05,20,06,41,6.40
2011,05,20,06,42,6.50
2011,05,20,06,43,6.60
2011,05,20,06,44,6.70
2011,05,20,06,45,6.70
2011,05,20,06,46,6.80
2011,05,20,06,47,6.90
2011,05,20,06,48,7.00
2011,05,20,06,49,7.10
2011,05,20,06,50,7.20
2011,05,20,06,51,7.30
2011,05,20,06,52,7.40
2011,05,20,06,53,7.40
2011,05,20,06,54,7.50
2011,05,20,06,55,7.60
2011,05,20,06,56,7.70
2011,05,20,06,57,7.70
2011,05,20,06,58,7.80
2011,05,20,06,59,7.90
2011,05,20,07,00,8.00
2011,05,20,07,01,8.10
2011,05,20,07,02,8.20
2011,05,20,07,03,8.20
2011,05,20,07,04,8.30
2011,05,20,07,05,8.30
2011,05,20,07,06,8.40
2011,05,20,07,07,8.50
2011,05,20,07,08,8.60
2011,05,20,07,09,8.70
2011,05,20,07,10,8.80
2011,05,20,07,11,8.90
2011,05,20,07,12,8.90
2011,05,20,07,13,9.00
2011,05,20,07,14,9.10
2011,05,20,07,15,9.10
2011,05,20,07,16,9.10
2011,05,20,07,17,9.20
2011,05,20,07,18,9.20
2011,05,20,07,19,9.20
2011,05,20,07,20,9.30
2011,05,20,07,21,9.30
2011,05,20,07,22,9.40
2011,05,20,07,23,9.40
2011,05,20,07,24,9.40
2011,05,20,07,25,9.50
2011,05,20,07,26,9.50
2011,05,20,07,27,9.60
2011,05,20,07,28,9.60
2011,05,20,07,29,9.70
2011,05,20,07,30,9.70
2011,05,20,07,31,9.80
2011,05,20,07,32,9.80
2011,05,20,07,33,9.80
2011,05,20,07,34,9.90
2011,05,20,07,35,9.90
2011,05,20,07,36,9.90
2011,05,20,07,37,9.90
2011,05,20,07,38,10.00
2011,05,20,07,39,10.00
2011,05,20,07,40,10.00
2011,05,20,07,41,10.10
2011,05,20,07,42,10.20
2011,05,20,07,43,10.20
2011,05,20,07,44,10.30
2011,05,20,07,45,10.30
2011,05,20,07,46,10.40
2011,05,20,07,47,10.50
2011,05,20,07,48,10.50
2011,05,20,07,49,10.60
2011,05,20,07,50,10.70
2011,05,20,07,51,10.80
2011,05,20,07,52,10.90
2011,05,20,07,53,11.00
2011,05,20,07,54,11.10
2011,05,20,07,55,11.20
2011,05,20,07,56,11.20
2011,05,20,07,57,11.30
2011,05,20,07,58,11.40
2011,05,20,07,59,11.50
2011,05,20,08,00,11.50
2011,05,20,08,01,11.60
2011,05,20,08,02,11.70
2011,05,20,08,03,11.80
2011,05,20,08,04,11.90
2011,05,20,08,05,12.00
2011,05,20,08,06,12.00
2011,05,20,08,07,12.10
2011,05,20,08,08,12.10
2011,05,20,08,09,12.20
2011,05,20,08,10,12.20
2011,05,20,08,11,12.30
2011,05,20,08,12,12.30
2011,05,20,08,13,12.40
2011,05,20,08,14,12.50
2011,05,20,08,15,12.60
2011,05,20,08,16,12.80
2011,05,20,08,17,12.90
2011,05,20,08,18,12.90
2011,05,20,08,19,13.00
2011,05,20,08,20,13.10
2011,05,20,08,21,13.20
2011,05,20,08,22,13.30
2011,05,20,08,23,13.30
2011,05,20,08,24,13.30
2011,05,20,08,25,13.30
2011,05,20,08,26,13.20
2011,05,20,08,27,13.20
2011,05,20,08,28,13.20
2011,05,20,08,29,13.20
2011,05,20,08,30,13.20
2011,05,20,08,31,13.20
2011,05,20,08,32,13.30
2011,05,20,08,33,13.30
2011,05,20,08,34,13.30
2011,05,20,08,35,13.40
2011,05,20,08,36,13.50
2011,05,20,08,37,13.60
2011,05,20,08,38,13.80
2011,05,20,08,39,13.90
2011,05,20,08,40,14.10
2011,05,20,08,41,14.20
2011,05,20,08,42,14.30
2011,05,20,08,43,14.30
2011,05,20,08,44,14.40
2011,05,20,08,45,14.30
2011,05,20,08,46,14.30
2011,05,20,08,47,14.30
2011,05,20,08,48,14.40
2011,05,20,08,49,14.40
2011,05,20,08,50,14.50
2011,05,20,08,51,14.60
2011,05,20,08,52,14.60
2011,05,20,08,53,14.70
2011,05,20,08,54,14.70
2011,05,20,08,55,14.70
2011,05,20,08,56,14.70
2011,05,20,08,57,14.70
2011,05,20,08,58,14.70
2011,05,20,08,59,14.60
2011,05,20,09,00,14.60
2011,05,20,09,01,14.60
2011,05,20,09,02,14.60
2011,05,20,09,03,14.50
2011,05,20,09,04,14.50
2011,05,20,09,05,14.50
2011,05,20,09,06,14.60
2011,05,20,09,07,14.70
2011,05,20,09,08,14.80
2011,05,20,09,09,14.80
2011,05,20,09,10,14.90
2011,05,20,09,11,14.90
2011,05,20,09,12,14.90
2011,05,20,09,13,14.90
2011,05,20,09,14,14.80
2011,05,20,09,15,14.60
2011,05,20,09,16,14.40
2011,05,20,09,17,14.20
2011,05,20,09,18,14.00
2011,05,20,09,19,13.90
2011,05,20,09,20,13.70
2011,05,20,09,21,13.60
2011,05,20,09,22,13.50
2011,05,20,09,23,13.40
2011,05,20,09,24,13.40
2011,05,20,09,25,13.30
2011,05,20,09,26,13.30
2011,05,20,09,27,13.30
2011,05,20,09,28,13.20
2011,05,20,09,29,13.20
2011,05,20,09,30,13.10
2011,05,20,09,31,13.00
2011,05,20,09,32,12.90
2011,05,20,09,33,12.80
2011,05,20,09,34,12.80
2011,05,20,09,35,12.70
2011,05,20,09,36,12.60
2011,05,20,09,37,12.60
2011,05,20,09,38,12.50
2011,05,20,09,39,12.50
2011,05,20,09,40,12.40
2011,05,20,09,41,12.40
2011,05,20,09,42,12.30
2011,05,20,09,43,12.30
2011,05,20,09,44,12.30
2011,05,20,09,45,12.30
2011,05,20,09,46,12.30
2011,05,20,09,47,12.30
2011,05,20,09,48,12.30
2011,05,20,09,49,12.20
2011,05,20,09,50,12.20
2011,05,20,09,51,12.30
2011,05,20,09,52,12.30
2011,05,20,09,53,12.30
2011,05,20,09,54,12.40
2011,05,20,09,55,12.40
2011,05,20,09,56,12.40
2011,05,20,09,57,12.50
2011,05,20,09,58,12.50
2011,05,20,09,59,12.40
2011,05,20,10,00,12.40
2011,05,20,10,01,12.40
2011,05,20,10,02,12.40
2011,05,20,10,03,12.40
2011,05,20,10,04,12.40
2011,05,20,10,05,12.50
2011,05,20,10,06,12.50
2011,05,20,10,07,12.60
2011,05,20,10,08,12.60
2011,05,20,10,09,12.70
2011,05,20,10,10,12.70
2011,05,20,10,11,12.70
2011,05,20,10,12,12.80
2011,05,20,10,13,12.90
2011,05,20,10,14,13.00
2011,05,20,10,15,13.20
2011,05,20,10,16,13.30
2011,05,20,10,17,13.40
2011,05,20,10,18,13.50
2011,05,20,10,19,13.60
2011,05,20,10,20,13.70
2011,05,20,10,21,13.80
2011,05,20,10,22,13.80
2011,05,20,10,23,13.80
2011,05,20,10,24,13.90
2011,05,20,10,25,13.90
2011,05,20,10,26,14.00
2011,05,20,10,27,14.10
2011,05,20,10,28,14.20
2011,05,20,10,29,14.30
2011,05,20,10,30,14.40
2011,05,20,10,31,14.50
2011,05,20,10,32,14.60
2011,05,20,10,33,14.70
2011,05,20,10,34,14.80
2011,05,20,10,35,14.80
2011,05,20,10,36,14.80
2011,05,20,10,37,14.80
2011,05,20,10,38,14.80
2011,05,20,10,39,14.80
2011,05,20,10,40,14.80
2011,05,20,10,41,14.80
2011,05,20,10,42,14.90
2011,05,20,10,43,14.90
2011,05,20,10,44,14.90
2011,05,20,10,45,14.90
2011,05,20,10,46,14.90
2011,05,20,10,47,14.90
2011,05,20,10,48,14.80
2011,05,20,10,49,14.80
2011,05,20,10,50,14.90
2011,05,20,10,51,15.00
2011,05,20,10,52,15.10
2011,05,20,10,53,15.20
2011,05,20,10,54,15.20
2011,05,20,10,55,15.20
2011,05,20,10,56,15.20
2011,05,20,10,57,15.30
2011,05,20,10,58,15.30
2011,05,20,10,59,15.30
2011,05,20,11,00,15.30
2011,05,20,11,01,15.30
2011,05,20,11,02,15.30
2011,05,20,11,03,15.40
2011,05,20,11,04,15.40
2011,05,20,11,05,15.30
2011,05,20,11,06,15.30
2011,05,20,11,07,15.30
2011,05,20,11,08,15.30
2011,05,20,11,09,15.30
2011,05,20,11,10,15.30
2011,05,20,11,11,15.40
2011,05,20,11,12,15.40
2011,05,20,11,13,15.40
2011,05,20,11,14,15.40
2011,05,20,11,15,15.50
2011,05,20,11,16,15.60
2011,05,20,11,17,15.60
2011,05,20,11,18,15.60
2011,05,20,11,19,15.70
2011,05,20,11,20,15.70
2011,05,20,11,21,15.70
2011,05,20,11,22,15.70
2011,05,20,11,23,15.70
2011,05,20,11,24,15.70
2011,05,20,11,25,15.70
2011,05,20,11,26,15.80
2011,05,20,11,27,15.80
2011,05,20,11,28,15.70
2011,05,20,11,29,15.60
2011,05,20,11,30,15.60
2011,05,20,11,31,15.60
2011,05,20,11,32,15.60
2011,05,20,11,33,15.60
2011,05,20,11,34,15.50
2011,05,20,11,35,15.40
2011,05,20,11,36,15.40
2011,05,20,11,37,15.30
2011,05,20,11,38,15.30
2011,05,20,11,39,15.30
2011,05,20,11,40,15.30
2011,05,20,11,41,15.30
2011,05,20,11,42,15.30
2011,05,20,11,43,15.40
2011,05,20,11,44,15.50
2011,05,20,11,45,15.60
2011,05,20,11,46,15.70
2011,05,20,11,47,15.80
2011,05,20,11,48,15.90
2011,05,20,11,49,15.90
2011,05,20,11,50,16.00
2011,05,20,11,51,16.10
2011,05,20,11,52,16.20
2011,05,20,11,53,16.20
2011,05,20,11,54,16.30
2011,05,20,11,55,16.30
2011,05,20,11,56,16.20
2011,05,20,11,57,16.20
2011,05,20,11,58,16.30
2011,05,20,11,59,16.40
2011,05,20,12,00,16.50
2011,05,20,12,01,16.60
2011,05,20,12,02,16.60
2011,05,20,12,03,16.70
2011,05,20,12,04,16.80
2011,05,20,12,05,16.80
2011,05,20,12,06,16.80
2011,05,20,12,07,16.70
2011,05,20,12,08,16.70
2011,05,20,12,09,16.70
2011,05,20,12,10,16.70
2011,05,20,12,11,16.60
2011,05,20,12,12,16.50
2011,05,20,12,13,16.40
2011,05,20,12,14,16.30
2011,05,20,12,15,16.30
2011,05,20,12,16,16.30
2011,05,20,12,17,16.30
2011,05,20,12,18,16.40
2011,05,20,12,19,16.40
2011,05,20,12,20,16.40
2011,05,20,12,21,16.50
2011,05,20,12,22,16.50
2011,05,20,12,23,16.50
2011,05,20,12,24,16.60
2011,05,20,12,25,16.70
2011,05,20,12,26,16.60
2011,05,20,12,27,16.50
2011,05,20,12,28,16.50
2011,05,20,12,29,16.40
2011,05,20,12,30,16.50
2011,05,20,12,31,16.60
2011,05,20,12,32,16.60
2011,05,20,12,33,16.60
2011,05,20,12,34,16.60
2011,05,20,12,35,16.60
2011,05,20,12,36,16.60
2011,05,20,12,37,16.60
2011,05,20,12,38,16.70
2011,05,20,12,39,16.70
2011,05,20,12,40,16.80
2011,05,20,12,41,16.80
2011,05,20,12,42,16.90
2011,05,20,12,43,16.90
2011,05,20,12,44,16.90
2011,05,20,12,45,16.90
2011,05,20,12,46,16.90
2011,05,20,12,47,16.90
2011,05,20,12,48,17.00
2011,05,20,12,49,17.00
2011,05,20,12,50,17.10
2011,05,20,12,51,17.10
2011,05,20,12,52,17.10
2011,05,20,12,53,17.10
2011,05,20,12,54,17.10
2011,05,20,12,55,17.10
2011,05,20,12,56,17.10
2011,05,20,12,57,17.10
2011,05,20,12,58,17.20
2011,05,20,12,59,17.20
2011,05,20,13,00,17.20
2011,05,20,13,01,17.20
2011,05,20,13,02,17.20
2011,05,20,13,03,17.30
2011,05,20,13,04,17.30
2011,05,20,13,05,17.30
2011,05,20,13,06,17.40
2011,05,20,13,07,17.40
2011,05,20,13,08,17.40
2011,05,20,13,09,17.40
2011,05,20,13,10,17.40
2011,05,20,13,11,17.50
2011,05,20,13,12,17.50
2011,05,20,13,13,17.60
2011,05,20,13,14,17.60
2011,05,20,13,15,17.70
2011,05,20,13,16,17.70
2011,05,20,13,17,17.60
2011,05,20,13,18,17.60
2011,05,20,13,19,17.60
2011,05,20,13,20,17.60
2011,05,20,13,21,17.60
2011,05,20,13,22,17.60
2011,05,20,13,23,17.70
2011,05,20,13,24,17.70
2011,05,20,13,25,17.80
2011,05,20,13,26,17.80
2011,05,20,13,27,17.90
2011,05,20,13,28,17.90
2011,05,20,13,29,18.00
2011,05,20,13,30,18.10
2011,05,20,13,31,18.20
2011,05,20,13,32,18.20
2011,05,20,13,33,18.30
2011,05,20,13,34,18.30
2011,05,20,13,35,18.20
2011,05,20,13,36,18.20
2011,05,20,13,37,18.10
2011,05,20,13,38,18.10
2011,05,20,13,39,18.10
2011,05,20,13,40,18.00
2011,05,20,13,41,18.00
2011,05,20,13,42,18.00
2011,05,20,13,43,17.90
2011,05,20,13,44,17.90
2011,05,20,13,45,17.80
2011,05,20,13,46,17.80
2011,05,20,13,47,17.90
2011,05,20,13,48,17.80
2011,05,20,13,49,17.80
2011,05,20,13,50,17.80
2011,05,20,13,51,17.80
2011,05,20,13,52,17.80
2011,05,20,13,53,17.70
2011,05,20,13,54,17.70
2011,05,20,13,55,17.80
2011,05,20,13,56,17.80
2011,05,20,13,57,17.80
2011,05,20,13,58,17.90
2011,05,20,13,59,18.00
2011,05,20,14,00,18.00
2011,05,20,14,01,18.00
2011,05,20,14,02,18.00
2011,05,20,14,03,18.10
2011,05,20,14,04,18.10
2011,05,20,14,05,18.10
2011,05,20,14,06,18.10
2011,05,20,14,07,18.20
2011,05,20,14,08,18.20
2011,05,20,14,09,18.20
2011,05,20,14,10,18.20
2011,05,20,14,11,18.20
2011,05,20,14,12,18.30
2011,05,20,14,13,18.40
2011,05,20,14,14,18.40
2011,05,20,14,15,18.50
2011,05,20,14,16,18.60
2011,05,20,14,17,18.60
2011,05,20,14,18,18.60
2011,05,20,14,19,18.60
2011,05,20,14,20,18.60
2011,05,20,14,21,18.60
2011,05,20,14,22,18.70
2011,05,20,14,23,18.70
2011,05,20,14,24,18.80
2011,05,20,14,25,18.80
2011,05,20,14,26,18.90
2011,05,20,14,27,18.90
2011,05,20,14,28,18.90
2011,05,20,14,29,18.90
2011,05,20,14,30,18.90
2011,05,20,14,31,19.00
2011,05,20,14,32,19.00
2011,05,20,14,33,19.00
2011,05,20,14,34,19.10
2011,05,20,14,35,19.10
2011,05,20,14,36,19.20
2011,05,20,14,37,19.20
2011,05,20,14,38,19.20
2011,05,20,14,39,19.30
2011,05,20,14,40,19.40
2011,05,20,14,41,19.40
2011,05,20,14,42,19.40
2011,05,20,14,43,19.50
2011,05,20,14,44,19.60
2011,05,20,14,45,19.60
2011,05,20,14,46,19.70
2011,05,20,14,47,19.70
2011,05,20,14,48,19.80
2011,05,20,14,49,19.90
2011,05,20,14,50,20.00
2011,05,20,14,51,20.00
2011,05,20,14,52,20.00
2011,05,20,14,53,20.00
2011,05,20,14,54,20.10
2011,05,20,14,55,20.10
2011,05,20,14,56,20.20
2011,05,20,14,57,20.20
2011,05,20,14,58,20.10
2011,05,20,14,59,20.10
2011,05,20,15,00,20.10
2011,05,20,15,01,20.10
2011,05,20,15,02,20.10
2011,05,20,15,03,20.20
2011,05,20,15,04,20.20
2011,05,20,15,05,20.20
2011,05,20,15,06,20.20
2011,05,20,15,07,20.20
2011,05,20,15,08,20.20
2011,05,20,15,09,20.20
2011,05,20,15,10,20.20
2011,05,20,15,11,20.20
2011,05,20,15,12,20.20
2011,05,20,15,13,20.20
2011,05,20,15,14,20.20
2011,05,20,15,15,20.20
2011,05,20,15,16,20.20
2011,05,20,15,17,20.20
2011,05,20,15,18,20.30
2011,05,20,15,19,20.30
2011,05,20,15,20,20.20
2011,05,20,15,21,20.20
2011,05,20,15,22,20.20
2011,05,20,15,23,20.20
2011,05,20,15,24,20.20
2011,05,20,15,25,20.20
2011,05,20,15,26,20.20
2011,05,20,15,27,20.20
2011,05,20,15,28,20.10
2011,05,20,15,29,20.10
2011,05,20,15,30,20.10
2011,05,20,15,31,20.10
2011,05,20,15,32,20.10
2011,05,20,15,33,20.00
2011,05,20,15,34,20.00
2011,05,20,15,35,19.90
2011,05,20,15,36,19.80
2011,05,20,15,37,19.70
2011,05,20,15,38,19.60
2011,05,20,15,39,19.60
2011,05,20,15,40,19.60
2011,05,20,15,41,19.50
2011,05,20,15,42,19.50
2011,05,20,15,43,19.60
2011,05,20,15,44,19.60
2011,05,20,15,45,19.70
2011,05,20,15,46,19.70
2011,05,20,15,47,19.80
2011,05,20,15,48,19.80
2011,05,20,15,49,19.80
2011,05,20,15,50,19.80
2011,05,20,15,51,19.80
2011,05,20,15,52,19.90
2011,05,20,15,53,20.00
2011,05,20,15,54,20.10
2011,05,20,15,55,20.10
2011,05,20,15,56,20.20
2011,05,20,15,57,20.20
2011,05,20,15,58,20.20
2011,05,20,15,59,20.30
2011,05,20,16,00,20.30
2011,05,20,16,01,20.20
2011,05,20,16,02,20.20
2011,05,20,16,03,20.10
2011,05,20,16,04,20.10
2011,05,20,16,05,20.10
2011,05,20,16,06,20.10
2011,05,20,16,07,20.10
2011,05,20,16,08,20.10
2011,05,20,16,09,20.20
2011,05,20,16,10,20.20
2011,05,20,16,11,20.20
2011,05,20,16,12,20.20
2011,05,20,16,13,20.20
2011,05,20,16,14,20.10
2011,05,20,16,15,20.10
2011,05,20,16,16,20.10
2011,05,20,16,17,20.20
2011,05,20,16,18,20.20
2011,05,20,16,19,20.10
2011,05,20,16,20,20.10
2011,05,20,16,21,20.00
2011,05,20,16,22,20.00
2011,05,20,16,23,20.10
2011,05,20,16,24,20.10
2011,05,20,16,25,20.20
2011,05,20,16,26,20.20
2011,05,20,16,27,20.30
2011,05,20,16,28,20.30
2011,05,20,16,29,20.40
2011,05,20,16,30,20.40
2011,05,20,16,31,20.40
2011,05,20,16,32,20.40
2011,05,20,16,33,20.40
2011,05,20,16,34,20.40
2011,05,20,16,35,20.40
2011,05,20,16,36,20.40
2011,05,20,16,37,20.30
2011,05,20,16,38,20.30
2011,05,20,16,39,20.30
2011,05,20,16,40,20.30
2011,05,20,16,41,20.30
2011,05,20,16,42,20.30
2011,05,20,16,43,20.30
2011,05,20,16,44,20.20
2011,05,20,16,45,20.20
2011,05,20,16,46,20.20
2011,05,20,16,47,20.20
2011,05,20,16,48,20.20
2011,05,20,16,49,20.20
2011,05,20,16,50,20.20
2011,05,20,16,51,20.10
2011,05,20,16,52,20.20
2011,05,20,16,53,20.20
2011,05,20,16,54,20.20
2011,05,20,16,55,20.20
2011,05,20,16,56,20.20
2011,05,20,16,57,20.20
2011,05,20,16,58,20.20
2011,05,20,16,59,20.20
2011,05,20,17,00,20.20
2011,05,20,17,01,20.10
2011,05,20,17,02,20.10
2011,05,20,17,03,20.10
2011,05,20,17,04,20.10
2011,05,20,17,05,20.10
2011,05,20,17,06,20.00
2011,05,20,17,07,20.00
2011,05,20,17,08,19.90
2011,05,20,17,09,19.80
2011,05,20,17,10,19.80
2011,05,20,17,11,19.80
2011,05,20,17,12,19.80
2011,05,20,17,13,19.80
2011,05,20,17,14,19.80
2011,05,20,17,15,19.80
2011,05,20,17,16,19.80
2011,05,20,17,17,19.70
2011,05,20,17,18,19.70
2011,05,20,17,19,19.70
2011,05,20,17,20,19.80
2011,05,20,17,21,19.80
2011,05,20,17,22,19.80
2011,05,20,17,23,19.80
2011,05,20,17,24,19.80
2011,05,20,17,25,19.80
2011,05,20,17,26,19.80
2011,05,20,17,27,19.80
2011,05,20,17,28,19.80
2011,05,20,17,29,19.80
2011,05,20,17,30,19.80
2011,05,20,17,31,19.70
2011,05,20,17,32,19.60
2011,05,20,17,33,19.60
2011,05,20,17,34,19.50
2011,05,20,17,35,19.50
2011,05,20,17,36,19.50
2011,05,20,17,37,19.50
2011,05,20,17,38,19.60
2011,05,20,17,39,19.60